Wind_Speed
6 6 9 9 11 15 17 17 17 17 16 15 14 14 14 14 13 12 13 14 14 13 14 14 13 12 11 11 11 11 11 11 10 10 10 9 8 8 8 7 6 6 5 6 6 5 5 5 6 8 8 8 8 8 8 8 8 7 5 4 4 4 4
6 8 11 12 13 15 16 17 17 17 16 16 16 16 15 14 13 12 12 13 13 13 13 13 12 11 10 11 11 11 11 10 10 10 10 9 9 8 8 6 5 5 6 6 6 6 6 6 6 7 8 8 8 8 8 8 7 7 5 4 6 6 6
8 11 14 15 15 16 16 15 16 16 16 17 16 16 15 14 13 13 13 13 13 13 12 12 12 11 10 11 11 10 10 10 10 10 10 9 9 8 8 6 5 5 5 5 5 6 6 6 6 7 7 8 8 8 9 8 7 7 6 6 7 7 7
11 13 16 17 18 17 17 17 16 17 17 16 16 15 14 14 13 13 13 14 14 14 13 13 12 11 11 12 12 11 10 10 11 11 11 10 10 9 9 8 7 6 6 6 6 6 6 7 7 7 7 8 9 9 9 9 8 8 8 8 7 7 7
13 14 17 18 19 19 19 19 19 18 18 17 16 16 15 14 14 13 13 14 14 14 13 13 12 12 12 12 12 11 10 10 12 12 12 11 11 10 9 9 8 7 6 6 6 6 6 7 8 7 8 8 8 9 9 9 9 8 8 8 8 9 8
15 16 19 20 20 21 21 21 21 20 19 18 16 16 16 15 14 14 14 13 13 13 12 12 12 12 12 12 11 12 11 11 12 13 13 12 11 10 10 10 9 7 7 7 7 7 6 7 8 9 9 8 8 9 9 9 8 8 8 7 8 8 7
18 18 21 23 22 23 22 22 22 21 19 18 17 16 16 15 15 15 14 14 14 13 13 12 12 12 12 12 11 11 11 11 12 13 14 14 12 11 10 10 9 8 8 8 8 8 7 8 9 10 11 11 10 10 9 9 9 9 9 7 6 8 7
16 21 22 24 24 23 23 23 22 21 20 19 18 17 16 15 15 14 13 13 13 13 13 13 14 13 13 12 11 11 10 11 11 13 14 14 14 12 11 11 9 8 9 8 8 9 9 9 10 11 12 11 11 10 9 10 10 10 10 8 8 9 8
13 22 25 26 25 24 24 23 23 22 21 20 18 17 16 14 13 13 12 12 12 14 14 14 15 14 13 13 12 11 11 11 11 12 13 13 13 12 11 11 9 8 8 8 9 9 10 10 11 11 12 11 10 10 10 10 11 11 10 8 9 10 10
12 19 24 26 26 25 25 25 25 24 23 21 18 16 14 13 12 12 11 11 11 12 13 14 14 14 14 14 13 12 11 11 11 11 12 12 12 13 12 11 9 8 9 9 9 9 10 11 10 11 11 10 11 10 10 10 9 8 7 7 8 10 10
15 19 23 25 26 27 27 26 25 24 23 20 17 14 13 12 12 10 10 10 10 10 11 11 12 14 14 14 13 13 12 11 10 11 12 11 12 12 12 11 9 9 9 9 8 9 10 10 9 10 11 11 12 11 9 8 7 5 5 5 6 9 9
20 23 24 26 28 29 28 27 25 23 22 19 16 14 12 12 11 10 10 10 9 10 10 9 10 12 13 13 13 13 13 12 11 12 12 11 11 12 10 10 9 9 10 9 9 9 9 10 10 10 11 12 13 11 8 7 6 5 4 2 4 7 8
22 26 27 28 29 31 30 29 26 24 22 19 16 14 13 12 11 11 10 10 9 9 9 9 10 11 12 12 13 14 13 13 12 12 11 11 11 11 10 9 9 10 10 10 9 9 10 10 10 10 11 12 12 11 9 7 6 7 5 1 2 5 7
22 27 29 30 31 32 32 29 27 25 22 19 17 16 15 13 12 11 10 9 8 8 9 9 10 11 11 11 13 14 14 14 13 12 12 11 11 11 10 9 10 10 10 10 10 10 10 10 10 10 11 12 12 11 9 7 7 9 6 2 1 4 7
24 27 30 32 32 32 31 29 28 26 22 19 18 18 16 14 13 11 10 9 8 8 8 9 9 11 11 12 12 14 14 14 13 12 12 12 11 11 10 9 10 10 10 10 10 10 10 11 11 11 12 13 12 12 11 9 9 9 7 5 4 5 7
27 29 31 32 33 31 30 29 28 26 23 21 20 19 17 15 13 11 11 10 9 9 9 9 10 10 11 12 12 14 15 14 13 13 13 13 12 12 11 11 10 9 10 10 11 11 11 11 11 11 13 14 13 13 14 11 10 10 9 8 6 4 6
29 30 32 34 33 32 30 28 28 27 24 23 22 19 17 15 13 12 12 11 10 10 9 9 10 10 11 12 12 14 15 13 13 14 14 14 14 13 12 11 10 9 10 11 12 13 12 11 11 11 13 15 14 14 15 13 11 11 10 10 8 6 8
29 32 36 36 34 33 30 29 30 28 25 24 22 19 17 15 13 13 12 11 11 11 10 10 10 10 11 11 12 13 14 13 14 15 15 14 14 14 12 11 11 11 11 11 12 13 13 11 11 12 14 15 15 16 16 13 11 11 11 11 10 9 11
31 35 39 37 35 33 31 30 32 29 26 25 23 20 18 14 13 13 12 12 12 11 10 10 9 8 9 10 11 13 13 14 15 15 15 16 16 15 14 14 13 12 11 12 13 13 13 12 12 12 13 15 16 17 16 13 11 11 11 11 12 12 13
31 34 36 37 36 34 32 33 33 29 26 25 23 20 18 15 14 14 12 11 12 11 9 8 7 7 8 8 10 12 12 13 14 14 15 17 16 16 16 16 15 13 12 12 13 13 12 12 12 13 13 14 17 17 15 12 11 12 12 12 14 14 12
32 32 33 35 34 33 34 35 33 30 28 25 23 21 19 17 17 15 12 11 10 9 9 9 8 8 8 8 9 9 11 13 12 12 14 15 13 13 15 16 16 14 13 13 13 13 13 12 13 14 14 14 16 17 14 11 11 13 14 15 15 13 11
34 34 34 35 35 35 36 35 33 32 29 26 24 23 21 20 19 16 13 11 9 9 10 10 9 9 8 7 8 8 11 13 12 12 13 12 11 12 14 16 16 15 13 13 13 13 14 13 14 15 14 14 15 15 13 12 13 14 14 15 14 13 12
35 35 36 37 37 38 39 37 35 34 32 29 27 25 23 22 19 16 14 11 9 10 10 9 9 9 8 7 9 9 10 12 12 13 13 11 11 12 15 17 17 15 13 13 12 13 14 14 14 14 14 13 12 12 12 14 15 15 13 13 14 14 15
35 36 36 36 35 37 39 39 38 36 34 33 30 25 23 21 18 17 14 12 12 12 10 9 9 9 8 8 9 10 11 12 12 13 13 12 12 13 15 17 17 16 14 12 12 13 13 13 13 14 13 12 12 11 12 14 15 16 15 14 15 16 16
32 33 33 35 35 36 38 39 39 37 35 35 31 24 21 20 19 18 16 15 15 13 11 10 10 9 9 9 10 11 12 12 12 12 13 14 13 13 15 17 18 17 15 14 13 13 12 12 12 13 13 13 13 13 13 13 14 16 16 15 16 17 18
29 30 31 34 36 36 37 39 38 36 34 34 31 26 22 21 20 19 19 18 17 14 12 11 11 11 11 11 12 12 12 13 14 14 14 14 13 12 12 14 16 17 16 15 14 13 13 13 13 14 14 15 15 14 15 16 16 17 17 17 17 17 18
28 30 31 33 36 37 38 38 38 36 35 36 34 29 25 23 22 22 21 20 18 16 15 13 13 13 13 13 13 13 13 14 14 13 13 13 13 12 10 11 13 14 14 14 13 12 12 12 13 14 15 15 16 16 17 18 19 19 20 20 20 19 20
27 30 31 32 34 35 37 37 37 37 36 38 37 33 28 25 24 24 23 21 20 19 17 16 16 16 15 14 14 14 14 14 13 11 10 11 12 12 10 10 11 11 11 11 11 12 12 12 12 12 13 14 15 17 18 19 20 21 22 22 22 22 23
26 28 31 32 34 34 35 36 36 35 36 37 35 32 29 27 26 25 24 23 22 20 19 18 18 18 17 16 15 16 15 15 14 13 12 12 11 11 11 10 10 11 11 11 11 12 13 13 12 12 12 13 15 16 17 17 18 20 21 22 23 24 25
25 25 29 32 33 34 34 34 34 35 37 35 32 30 29 29 28 27 25 24 23 22 21 21 21 21 19 17 17 17 16 16 15 15 14 13 12 12 12 11 11 12 12 12 12 13 14 14 14 14 14 15 16 17 18 19 20 20 21 22 23 24 25
25 24 28 31 32 33 33 34 35 37 36 32 30 30 30 30 29 28 27 26 25 24 24 23 23 22 19 17 17 16 16 16 15 14 13 13 13 13 12 12 12 12 12 13 13 13 14 15 15 16 17 18 18 19 20 21 22 23 23 24 25 26 27
26 26 27 29 30 30 31 33 34 35 34 32 30 30 30 29 29 29 29 28 27 26 26 25 25 24 22 19 17 16 16 16 15 15 14 14 14 13 13 12 12 12 13 13 13 14 14 15 16 17 18 19 20 21 22 23 24 25 27 28 29 30 31
26 26 26 28 29 29 30 31 31 32 33 32 29 30 31 31 32 31 30 30 28 26 25 25 25 24 22 20 18 18 17 16 16 16 16 16 15 14 13 13 13 13 14 14 15 15 16 17 18 19 20 21 22 23 24 26 27 28 29 30 31 32 33
22 23 26 28 29 30 32 34 33 34 35 33 31 32 33 32 31 29 27 26 24 23 22 23 23 22 21 20 19 19 17 15 16 16 16 15 14 14 14 15 15 15 15 15 16 17 18 19 20 22 23 24 25 26 27 28 30 31 32 33 33 34 35
19 20 22 24 26 29 31 32 31 31 31 29 27 27 27 25 23 22 21 21 21 21 21 22 22 22 21 20 19 18 17 16 17 17 17 15 14 14 15 16 16 16 16 17 18 19 20 22 23 25 26 27 28 30 31 32 33 34 35 36 37 38 38
18 18 18 18 19 20 22 23 23 22 22 21 20 20 20 21 21 20 20 20 19 19 19 20 21 21 20 20 19 17 17 16 16 16 15 15 15 15 16 17 18 18 19 20 22 23 24 25 26 28 29 30 31 32 33 34 35 36 37 38 39 40 41
15 16 17 17 17 17 18 20 21 21 21 22 22 23 23 24 25 24 24 22 20 18 16 16 16 16 17 17 16 15 15 14 14 14 15 16 18 18 18 19 21 21 22 23 24 26 27 27 28 29 30 31 32 33 34 36 37 38 39 40 41 42 42
Wind_Direction
182 162 171 177 184 182 179 182 186 189 191 195 195 194 199 203 206 210 213 213 211 209 211 213 214 212 210 211 213 208 204 209 209 208 208 206 212 218 219 217 204 194 198 202 202 195 194 190 177 180 181 180 183 186 193 194 190 196 200 188 184 180 180
182 181 180 179 185 187 183 183 188 193 194 194 195 194 197 201 204 206 205 206 208 206 207 210 211 211 210 210 212 205 203 210 211 212 214 208 210 219 224 224 212 199 199 202 204 199 199 202 197 193 186 181 185 192 196 198 199 201 205 193 188 201 209
201 200 193 186 188 190 188 188 193 198 199 196 196 197 197 198 200 199 195 199 206 206 206 209 209 209 210 211 214 211 210 216 215 213 216 215 213 218 224 227 224 214 208 212 214 210 208 212 215 210 200 194 195 203 204 205 210 210 213 210 195 204 220
218 207 201 195 191 189 190 193 197 202 202 197 196 197 197 197 198 198 196 200 207 208 208 208 206 208 211 212 215 217 218 221 219 217 217 219 218 217 222 225 221 215 214 223 223 213 211 216 222 223 218 214 211 208 207 210 219 217 213 207 194 200 219
225 212 203 198 194 192 193 194 198 202 201 198 197 197 199 198 198 201 204 206 210 212 211 209 207 210 216 217 219 223 224 224 224 222 220 222 222 219 223 223 219 218 221 227 224 215 214 216 220 223 222 221 217 209 205 212 222 224 215 201 192 201 216
226 217 203 197 196 196 198 198 199 202 202 200 200 201 202 201 200 203 206 209 213 214 214 214 212 214 219 220 223 229 231 231 229 227 223 225 226 223 224 223 221 220 222 225 226 224 217 215 222 226 220 212 208 208 208 215 224 229 226 209 201 216 231
229 218 202 196 196 198 201 202 200 201 202 202 203 205 206 206 205 207 209 212 216 218 218 219 218 219 221 221 226 232 232 231 229 227 226 225 226 224 222 224 221 216 219 221 223 226 220 214 218 221 220 213 208 209 211 217 223 225 227 218 212 232 246
235 216 201 196 197 200 201 202 201 200 200 203 204 205 207 211 211 212 215 217 223 226 225 224 224 224 226 225 228 230 227 225 222 223 225 223 223 222 218 220 217 213 221 218 215 224 225 222 220 218 220 220 216 213 213 221 226 227 228 217 212 234 246
240 216 205 199 200 203 203 202 201 199 201 204 205 205 207 211 214 217 221 222 226 230 230 229 228 229 229 228 226 225 223 220 216 216 220 219 219 220 217 218 215 211 219 217 213 220 224 227 227 224 227 229 225 219 216 222 229 234 234 218 215 238 248
235 221 212 205 201 203 203 202 201 200 203 204 204 205 207 209 215 220 224 223 223 226 229 228 228 229 228 226 225 224 222 219 214 214 216 215 217 218 215 217 214 207 213 215 210 216 222 227 228 227 228 229 229 228 224 227 232 236 235 221 221 239 247
216 220 217 209 203 201 201 202 202 203 203 203 202 204 205 208 213 215 214 216 213 214 219 221 220 222 224 224 226 227 223 219 216 215 215 214 217 218 214 213 213 206 212 215 205 208 219 222 222 222 219 220 229 236 235 243 252 243 229 218 220 237 246
207 208 211 208 202 198 199 202 205 207 203 200 201 202 204 204 203 202 203 206 203 201 209 209 202 208 214 217 223 227 225 221 218 216 215 213 216 218 212 209 209 205 210 214 207 205 211 212 210 212 213 216 229 238 237 251 270 263 246 225 211 235 250
206 202 204 205 200 197 199 202 206 209 203 198 199 199 199 197 191 192 195 198 196 195 202 198 188 196 204 206 215 223 224 221 220 218 216 213 213 216 214 212 213 210 208 211 211 207 206 206 203 205 214 219 226 233 235 244 273 277 272 276 172 229 249
207 204 204 205 201 200 202 201 203 206 201 197 197 195 192 190 188 190 191 193 193 191 197 198 191 194 198 199 208 217 218 217 217 217 217 215 213 216 219 219 219 216 211 211 213 208 203 206 205 205 216 220 221 230 233 237 264 270 261 250 201 236 244
210 208 207 207 205 204 203 200 200 202 200 196 194 192 191 190 191 191 193 196 197 193 197 199 193 193 198 200 205 213 216 215 215 215 214 215 215 219 223 223 221 220 218 213 211 208 204 206 206 205 212 215 217 227 231 231 249 261 258 265 275 247 238
212 210 209 208 208 205 202 199 198 199 200 197 194 192 191 192 194 196 199 203 203 200 200 202 201 198 201 204 205 211 217 215 214 215 215 215 218 220 219 217 216 219 222 214 207 208 208 205 205 206 209 212 213 224 232 234 242 253 258 265 265 242 238
213 211 209 208 207 203 198 196 197 200 200 197 194 193 194 195 198 201 205 206 206 205 202 204 208 202 202 207 207 212 218 215 213 218 218 217 221 224 218 214 214 214 216 214 209 207 204 199 201 205 207 210 212 219 230 238 244 251 257 259 259 260 262
214 211 208 205 203 200 196 194 197 201 201 198 195 194 196 197 199 205 207 206 208 209 204 206 210 204 205 210 209 212 217 216 216 222 222 218 220 222 221 218 217 214 210 208 209 209 203 195 194 198 204 211 212 216 225 234 242 252 261 263 268 278 278
216 214 209 203 197 198 199 195 197 201 201 199 197 195 197 197 202 210 207 203 210 214 209 210 211 210 212 212 211 213 216 217 221 225 226 224 219 216 219 221 218 217 211 204 207 209 206 200 194 194 204 210 211 216 224 230 242 256 263 267 275 282 284
220 216 212 204 197 199 201 197 197 201 201 199 198 198 198 198 206 214 209 207 216 217 213 214 213 214 217 215 216 215 212 215 220 221 222 225 222 214 216 220 217 214 212 207 206 206 205 208 205 198 202 206 208 216 225 231 243 256 262 268 276 281 282
219 215 212 207 200 200 203 198 197 201 201 200 201 201 199 202 210 213 213 216 217 211 212 217 215 216 218 216 219 217 212 212 213 213 217 222 222 216 213 214 211 209 210 209 206 201 202 213 216 207 203 206 210 217 227 237 243 248 255 263 271 276 279
218 213 210 210 205 201 202 200 199 201 201 201 204 203 201 206 211 214 218 218 214 212 217 220 220 222 224 220 217 215 217 217 211 210 215 215 213 211 206 205 206 206 209 209 203 198 198 205 213 212 209 212 217 218 222 233 242 247 252 260 268 270 272
218 212 211 214 207 198 199 202 202 202 203 203 205 204 204 209 213 218 222 220 218 223 225 224 226 229 229 225 220 215 217 220 214 213 218 212 205 204 198 197 203 205 206 206 200 197 197 196 204 214 216 220 225 219 217 228 241 248 255 264 270 270 270
215 212 212 213 204 193 196 204 204 202 203 206 206 204 206 213 219 224 227 227 229 233 232 230 232 233 230 227 226 221 217 217 215 216 221 214 203 201 195 193 199 203 203 202 196 196 199 197 201 213 221 227 230 226 226 235 243 248 256 263 264 264 266
211 211 210 205 198 195 200 206 207 204 205 208 209 206 209 218 225 230 232 232 236 239 238 237 237 238 237 233 231 227 220 218 217 218 223 218 204 197 194 194 198 201 200 201 196 194 199 200 200 208 216 224 227 229 236 244 244 244 250 257 257 257 258
208 210 207 201 198 199 205 209 211 209 209 212 212 211 214 221 228 233 234 236 240 243 243 243 242 242 242 239 236 230 221 219 219 219 225 225 214 203 197 195 201 204 203 205 204 203 207 209 208 208 212 218 223 230 240 247 248 246 246 249 251 251 252
208 210 206 200 199 203 208 212 213 212 212 215 215 214 217 223 229 232 235 238 242 245 247 247 243 240 240 238 237 231 221 219 222 224 230 235 231 222 205 189 194 204 207 208 210 212 215 218 219 219 219 221 224 229 237 243 247 248 247 247 247 246 248
208 212 208 202 202 207 210 213 214 214 217 221 220 218 219 224 229 232 235 239 242 245 249 248 242 238 235 234 234 229 221 217 216 217 221 226 232 233 221 197 191 200 207 210 212 215 219 221 224 226 227 230 232 234 237 239 242 246 248 249 249 248 248
211 213 211 209 210 212 214 217 219 221 228 231 225 219 219 225 230 232 234 238 240 243 246 246 241 235 229 227 227 222 217 214 212 211 212 214 223 233 233 222 210 208 212 217 221 226 230 231 231 232 235 239 244 247 249 250 252 253 255 256 257 257 256
217 215 209 209 212 214 217 222 224 230 236 232 218 213 219 225 228 231 232 234 238 241 243 241 236 228 220 216 215 213 212 213 215 217 217 218 222 228 233 235 232 228 228 231 234 237 242 246 247 247 249 251 253 256 257 259 259 260 262 262 263 263 263
215 214 207 206 211 217 222 225 230 237 237 222 208 211 220 224 228 231 232 234 237 239 238 233 227 220 212 206 205 207 211 214 216 219 222 226 228 229 233 239 242 242 241 241 242 244 248 252 255 257 258 259 261 263 263 264 265 265 267 267 267 267 266
214 213 210 211 216 223 228 232 235 235 224 208 206 216 221 224 227 229 230 232 233 233 233 232 229 221 210 202 202 207 213 217 219 219 222 227 231 232 235 240 243 246 248 251 255 258 259 260 261 261 262 262 264 266 267 269 269 268 268 268 268 268 268
210 213 213 216 221 225 228 229 229 222 210 204 209 215 217 221 226 228 229 230 230 229 228 227 224 216 207 203 205 208 212 219 224 225 226 228 234 239 243 247 250 251 254 257 260 262 263 263 263 263 263 263 263 265 266 267 267 268 267 268 268 269 269
193 201 203 203 205 205 205 206 209 211 212 214 217 217 218 221 224 225 224 222 220 218 217 214 210 205 203 205 208 208 211 219 229 235 236 237 241 248 252 254 256 256 258 259 259 259 260 261 262 264 265 266 266 267 268 268 269 270 271 271 270 270 270
189 193 195 194 194 196 197 199 204 211 217 220 221 220 219 217 215 212 208 208 211 212 211 209 207 205 206 209 212 213 214 219 228 237 243 248 252 255 257 259 259 259 260 260 260 260 261 262 264 266 267 269 270 271 272 273 273 274 274 274 274 273 272
209 203 200 199 201 204 203 201 200 201 202 202 201 201 202 199 198 198 200 204 209 211 210 208 209 210 211 212 213 215 216 220 228 237 246 254 257 257 257 260 261 262 262 263 263 264 265 266 267 268 270 272 273 274 275 276 276 276 275 275 275 274 274
217 215 209 201 199 200 194 187 185 185 184 186 189 192 194 195 196 198 200 201 200 197 196 197 199 202 205 206 208 212 217 224 232 240 248 254 258 260 261 262 265 267 268 269 271 271 272 273 274 274 275 276 277 277 276 276 276 276 275 275 274 274 274
Height
3130 3133 3135 3135 3136 3138 3140 3141 3143 3145 3147 3149 3150 3152 3153 3154 3155 3156 3157 3158 3159 3160 3161 3161 3162 3163 3164 3165 3165 3166 3167 3168 3169 3169 3170 3171 3172 3172 3172 3173 3174 3174 3174 3174 3174 3174 3174 3174 3174 3174 3174 3173 3174 3174 3175 3175 3175 3176 3176 3177 3178 3179 3179
3128 3130 3132 3133 3135 3136 3138 3141 3143 3144 3146 3148 3150 3151 3151 3152 3153 3155 3156 3157 3158 3159 3160 3161 3162 3163 3164 3164 3165 3166 3166 3167 3168 3168 3169 3170 3171 3171 3171 3172 3173 3174 3174 3173 3173 3173 3173 3174 3174 3174 3173 3173 3173 3174 3174 3175 3175 3175 3176 3177 3178 3179 3179
3127 3129 3130 3131 3133 3135 3137 3139 3142 3144 3146 3147 3148 3149 3150 3151 3152 3154 3155 3156 3157 3158 3159 3160 3161 3162 3162 3163 3164 3165 3165 3166 3167 3168 3168 3169 3170 3170 3170 3171 3171 3172 3172 3172 3172 3172 3173 3173 3173 3173 3173 3173 3173 3174 3174 3174 3175 3175 3176 3177 3179 3179 3179
3126 3127 3129 3130 3131 3133 3135 3138 3140 3142 3144 3146 3147 3148 3149 3150 3152 3153 3154 3155 3155 3156 3157 3159 3160 3160 3161 3162 3163 3164 3164 3165 3166 3167 3167 3168 3169 3170 3170 3170 3170 3170 3171 3171 3171 3171 3172 3172 3172 3172 3172 3173 3173 3173 3174 3174 3174 3175 3177 3178 3179 3179 3179
3125 3126 3127 3129 3130 3132 3134 3136 3138 3140 3142 3143 3145 3146 3148 3149 3151 3152 3153 3154 3155 3156 3156 3158 3159 3159 3160 3160 3161 3162 3163 3164 3165 3165 3166 3167 3168 3169 3169 3169 3169 3169 3169 3170 3170 3170 3171 3171 3171 3172 3172 3172 3172 3172 3173 3173 3173 3175 3176 3178 3179 3179 3179
3124 3125 3125 3127 3129 3131 3133 3134 3136 3138 3140 3141 3143 3145 3147 3148 3149 3150 3151 3153 3154 3154 3155 3157 3158 3158 3159 3159 3160 3161 3162 3163 3163 3164 3165 3166 3166 3167 3168 3168 3168 3168 3168 3168 3168 3169 3169 3170 3170 3171 3171 3171 3171 3171 3172 3172 3173 3174 3175 3177 3178 3178 3178
3122 3123 3124 3126 3127 3129 3131 3133 3135 3136 3138 3140 3142 3144 3145 3146 3148 3149 3150 3151 3152 3153 3154 3155 3156 3157 3157 3158 3158 3159 3160 3161 3162 3163 3164 3164 3165 3166 3166 3166 3167 3167 3167 3167 3167 3167 3168 3169 3169 3170 3170 3170 3170 3171 3172 3172 3172 3173 3174 3176 3176 3176 3177
3121 3122 3123 3125 3126 3128 3130 3131 3133 3136 3137 3139 3141 3142 3144 3145 3146 3147 3149 3150 3151 3152 3153 3154 3154 3155 3156 3157 3157 3158 3158 3159 3160 3161 3162 3163 3164 3165 3165 3165 3165 3166 3165 3166 3166 3166 3166 3167 3168 3169 3169 3169 3170 3170 3171 3171 3172 3173 3174 3175 3176 3175 3176
3119 3121 3122 3124 3125 3126 3128 3130 3132 3135 3136 3138 3139 3141 3142 3144 3145 3146 3147 3149 3150 3150 3151 3152 3152 3153 3154 3155 3156 3156 3157 3158 3159 3159 3160 3161 3162 3163 3163 3163 3164 3164 3164 3165 3165 3165 3165 3166 3167 3168 3168 3168 3169 3170 3170 3171 3171 3172 3173 3175 3176 3175 3175
3119 3120 3121 3123 3124 3126 3128 3130 3132 3133 3135 3137 3138 3140 3141 3142 3143 3144 3145 3146 3147 3148 3149 3150 3150 3151 3152 3153 3154 3155 3156 3157 3157 3158 3158 3159 3160 3161 3162 3162 3162 3163 3163 3163 3164 3164 3164 3165 3166 3166 3167 3167 3168 3169 3170 3170 3171 3172 3173 3175 3175 3174 3174
3118 3120 3121 3122 3123 3125 3127 3129 3131 3132 3134 3136 3137 3139 3140 3141 3142 3143 3144 3145 3146 3146 3147 3148 3149 3149 3150 3151 3152 3153 3154 3155 3156 3157 3157 3158 3159 3160 3160 3161 3161 3162 3162 3162 3163 3164 3163 3164 3164 3165 3166 3166 3166 3167 3168 3168 3169 3171 3172 3174 3174 3173 3173
3116 3118 3120 3121 3122 3124 3126 3128 3129 3131 3133 3135 3137 3138 3139 3140 3141 3142 3142 3143 3144 3145 3145 3146 3147 3148 3149 3150 3151 3152 3153 3154 3155 3155 3156 3156 3157 3158 3159 3160 3160 3161 3161 3161 3162 3162 3162 3163 3163 3164 3165 3165 3166 3166 3166 3167 3168 3169 3171 3173 3173 3172 3172
3114 3116 3118 3119 3121 3122 3124 3126 3128 3131 3133 3134 3135 3137 3138 3139 3140 3141 3141 3142 3143 3143 3144 3145 3146 3147 3148 3149 3150 3150 3151 3153 3153 3154 3154 3155 3156 3157 3158 3158 3159 3160 3160 3160 3161 3161 3161 3162 3162 3163 3164 3165 3165 3165 3166 3166 3167 3168 3170 3171 3171 3171 3171
3112 3114 3115 3117 3119 3120 3122 3124 3127 3130 3132 3133 3134 3135 3137 3138 3139 3140 3141 3141 3142 3142 3143 3144 3145 3146 3147 3147 3148 3149 3150 3151 3152 3152 3153 3153 3154 3155 3156 3157 3157 3158 3158 3159 3159 3160 3160 3161 3161 3162 3163 3164 3164 3164 3165 3166 3166 3167 3169 3170 3170 3170 3170
3111 3111 3113 3114 3116 3118 3120 3123 3126 3129 3130 3131 3133 3134 3135 3137 3138 3139 3140 3140 3141 3141 3142 3142 3143 3144 3145 3146 3146 3147 3148 3149 3150 3151 3151 3152 3152 3153 3154 3155 3156 3156 3156 3157 3157 3158 3159 3160 3161 3162 3162 3163 3163 3163 3164 3165 3166 3166 3168 3169 3169 3169 3169
3109 3109 3110 3112 3113 3115 3119 3122 3125 3127 3129 3130 3131 3133 3134 3135 3137 3138 3138 3139 3140 3140 3141 3141 3142 3143 3143 3144 3145 3145 3146 3147 3149 3149 3150 3150 3151 3152 3153 3154 3154 3154 3155 3155 3156 3157 3158 3159 3160 3161 3162 3162 3163 3162 3162 3164 3165 3165 3166 3167 3168 3168 3168
3107 3107 3108 3109 3110 3114 3117 3121 3124 3126 3127 3129 3130 3132 3133 3134 3135 3136 3137 3138 3139 3139 3140 3140 3140 3141 3142 3142 3143 3144 3144 3146 3147 3147 3147 3148 3149 3150 3151 3152 3153 3153 3153 3154 3154 3155 3156 3157 3159 3160 3160 3161 3161 3161 3161 3162 3164 3164 3164 3165 3166 3167 3167
3105 3105 3105 3105 3107 3111 3115 3119 3122 3124 3125 3127 3129 3130 3131 3132 3134 3135 3136 3137 3137 3138 3138 3139 3139 3140 3140 3141 3142 3142 3143 3144 3145 3145 3146 3147 3148 3149 3150 3151 3151 3151 3152 3153 3153 3154 3154 3155 3157 3158 3159 3160 3160 3160 3160 3161 3162 3163 3163 3164 3165 3165 3165
3101 3101 3103 3103 3105 3110 3114 3117 3120 3122 3124 3125 3128 3129 3130 3131 3132 3133 3135 3136 3136 3136 3137 3137 3138 3139 3139 3140 3140 3141 3142 3142 3143 3143 3144 3145 3146 3148 3148 3149 3149 3150 3151 3151 3152 3152 3153 3154 3155 3156 3157 3158 3158 3158 3159 3160 3161 3161 3162 3162 3163 3163 3163
3098 3099 3103 3104 3104 3108 3112 3115 3118 3120 3122 3124 3126 3128 3129 3130 3131 3131 3133 3135 3135 3135 3136 3136 3137 3137 3138 3138 3139 3139 3140 3141 3141 3142 3143 3143 3145 3146 3147 3147 3148 3149 3149 3150 3150 3151 3152 3153 3153 3154 3155 3156 3156 3157 3158 3159 3160 3160 3160 3161 3161 3162 3162
3096 3097 3101 3103 3104 3108 3111 3114 3116 3117 3120 3122 3125 3126 3127 3127 3128 3130 3132 3134 3134 3134 3135 3135 3135 3136 3136 3137 3137 3138 3139 3139 3140 3141 3141 3142 3144 3144 3145 3145 3146 3147 3148 3148 3149 3150 3151 3151 3152 3152 3153 3154 3155 3156 3157 3158 3158 3159 3159 3160 3160 3161 3161
3094 3096 3099 3100 3102 3107 3110 3112 3114 3116 3119 3121 3122 3124 3124 3125 3127 3129 3131 3132 3133 3133 3133 3134 3134 3135 3135 3136 3136 3137 3137 3138 3139 3139 3140 3141 3142 3142 3143 3144 3144 3145 3146 3147 3148 3149 3149 3150 3151 3151 3152 3154 3155 3155 3155 3156 3157 3158 3158 3159 3159 3159 3160
3091 3094 3096 3097 3101 3105 3108 3110 3112 3114 3117 3118 3119 3120 3121 3123 3126 3128 3129 3130 3131 3131 3132 3132 3133 3133 3134 3135 3135 3136 3136 3137 3138 3138 3139 3140 3140 3141 3141 3142 3143 3143 3144 3145 3146 3147 3148 3149 3150 3150 3152 3153 3154 3154 3155 3155 3155 3156 3157 3157 3157 3157 3158
3088 3091 3093 3096 3100 3103 3106 3108 3110 3112 3114 3114 3116 3118 3119 3122 3124 3126 3128 3129 3129 3130 3130 3131 3131 3132 3133 3133 3134 3134 3135 3135 3136 3137 3137 3138 3139 3139 3140 3141 3141 3142 3143 3144 3144 3145 3146 3147 3149 3150 3151 3152 3153 3154 3154 3155 3155 3155 3155 3156 3156 3156 3156
3086 3089 3092 3095 3098 3101 3103 3106 3108 3110 3111 3112 3115 3117 3119 3121 3123 3125 3126 3127 3127 3128 3129 3129 3130 3130 3131 3132 3132 3133 3133 3134 3135 3135 3135 3136 3137 3138 3138 3139 3140 3140 3141 3142 3143 3144 3145 3146 3147 3148 3149 3150 3151 3152 3153 3153 3154 3154 3154 3155 3155 3155 3155
3084 3087 3090 3093 3095 3098 3101 3104 3106 3108 3109 3111 3113 3116 3118 3119 3121 3123 3124 3124 3125 3126 3127 3128 3128 3129 3129 3130 3130 3131 3132 3132 3133 3133 3133 3134 3135 3136 3137 3138 3139 3139 3140 3141 3142 3143 3143 3144 3145 3146 3147 3148 3149 3150 3150 3151 3152 3152 3153 3153 3153 3154 3154
3083 3085 3088 3091 3094 3096 3099 3102 3104 3107 3107 3109 3112 3114 3116 3117 3119 3120 3121 3121 3123 3124 3125 3126 3127 3127 3128 3128 3129 3130 3130 3131 3132 3132 3132 3132 3133 3134 3135 3137 3137 3138 3139 3140 3141 3141 3142 3143 3143 3144 3145 3146 3147 3147 3148 3148 3148 3148 3149 3150 3150 3151 3151
3081 3083 3086 3090 3093 3094 3096 3099 3102 3104 3105 3108 3110 3112 3114 3115 3116 3117 3118 3119 3120 3121 3123 3124 3125 3125 3126 3126 3127 3128 3129 3129 3130 3131 3131 3131 3131 3132 3133 3135 3136 3137 3137 3138 3139 3140 3140 3141 3142 3142 3143 3143 3144 3144 3144 3144 3145 3145 3146 3146 3146 3147 3148
3079 3082 3085 3088 3091 3093 3095 3097 3099 3101 3103 3106 3108 3110 3111 3113 3114 3114 3115 3117 3118 3119 3120 3121 3122 3123 3123 3124 3125 3126 3127 3128 3128 3128 3129 3129 3130 3131 3132 3133 3135 3135 3136 3136 3137 3137 3138 3139 3140 3140 3141 3141 3141 3141 3142 3142 3143 3143 3143 3144 3144 3144 3145
3078 3080 3083 3085 3088 3091 3093 3095 3097 3098 3100 3102 3104 3107 3109 3110 3111 3111 3113 3114 3115 3116 3118 3119 3120 3120 3121 3122 3123 3124 3125 3126 3126 3127 3127 3128 3128 3129 3130 3131 3133 3134 3134 3135 3135 3136 3136 3137 3137 3138 3139 3139 3139 3139 3139 3140 3140 3140 3140 3141 3141 3141 3141
3077 3078 3081 3083 3086 3088 3090 3091 3093 3094 3096 3098 3101 3103 3105 3106 3107 3109 3110 3111 3113 3114 3115 3116 3117 3118 3119 3120 3122 3122 3123 3124 3124 3125 3126 3127 3127 3128 3129 3130 3131 3132 3133 3133 3134 3134 3134 3135 3135 3136 3136 3136 3136 3136 3136 3136 3136 3137 3137 3137 3137 3137 3137
3076 3077 3079 3082 3083 3085 3087 3088 3089 3091 3092 3095 3097 3099 3101 3103 3104 3105 3107 3108 3109 3111 3112 3113 3114 3115 3117 3118 3120 3120 3121 3121 3122 3123 3124 3125 3126 3127 3128 3129 3129 3130 3131 3131 3132 3132 3132 3133 3133 3133 3133 3133 3133 3133 3133 3132 3132 3132 3132 3132 3132 3132 3132
3075 3076 3078 3080 3081 3083 3084 3085 3086 3088 3090 3092 3093 3095 3097 3099 3100 3102 3103 3105 3106 3107 3108 3109 3111 3112 3114 3116 3117 3118 3119 3119 3119 3120 3121 3122 3123 3125 3126 3126 3127 3128 3128 3129 3129 3129 3129 3129 3129 3129 3129 3129 3129 3129 3129 3129 3128 3128 3128 3128 3128 3128 3127
3073 3075 3076 3077 3078 3080 3082 3082 3083 3085 3087 3089 3091 3092 3094 3095 3097 3098 3100 3101 3102 3104 3105 3107 3108 3110 3112 3114 3115 3116 3117 3117 3117 3117 3118 3120 3122 3123 3123 3124 3124 3125 3126 3126 3126 3126 3126 3125 3125 3125 3125 3125 3125 3125 3125 3125 3124 3124 3123 3123 3123 3123 3122
3072 3073 3074 3075 3076 3077 3078 3080 3081 3083 3084 3086 3088 3089 3091 3092 3094 3095 3097 3099 3100 3102 3103 3105 3107 3109 3110 3111 3113 3114 3114 3115 3115 3115 3116 3117 3119 3120 3121 3121 3121 3122 3123 3123 3123 3122 3122 3122 3122 3121 3121 3121 3121 3120 3120 3120 3119 3119 3118 3118 3117 3117 3116
3071 3072 3073 3074 3075 3076 3076 3077 3079 3080 3082 3083 3085 3086 3088 3090 3092 3093 3095 3096 3099 3100 3102 3103 3105 3106 3108 3109 3110 3111 3112 3113 3113 3113 3114 3115 3116 3117 3118 3118 3118 3119 3119 3119 3119 3119 3118 3118 3118 3117 3117 3117 3116 3116 3115 3115 3114 3113 3113 3112 3111 3110 3110
3071 3072 3072 3073 3074 3075 3076 3077 3078 3079 3081 3082 3083 3084 3086 3088 3089 3090 3092 3095 3097 3099 3100 3101 3102 3104 3105 3106 3108 3109 3109 3110 3111 3111 3112 3112 3113 3114 3115 3115 3115 3115 3115 3115 3114 3114 3114 3114 3114 3113 3113 3113 3112 3111 3110 3109 3108 3107 3106 3106 3105 3104 3104